Anchorage, AK

9:32 PM AKDT on August 29, 2016 (GMT -0800)
Lake Hood

Weather History for PALH - August, 2014

Change the Weather History Date:

Tuesday, August 19, 2014

  Actual Average Record
Temperature  
Mean Temperature 61 °F -  
Max Temperature 70 °F 62 °F 72 °F (2004)
Min Temperature 52 °F 48 °F 39 °F (1998)
Degree Days  
Heating Degree Days 4    
Growing Degree Days 11 (Base 50)    
Moisture  
Dew Point 51 °F    
Average Humidity 72    
Maximum Humidity 89    
Minimum Humidity 53    
Precipitation  
Precipitation 0.00 in - - ()
Sea Level Pressure  
Sea Level Pressure 29.99 in    
Wind  
Wind Speed 2 mph (NW)    
Max Wind Speed 7 mph    
Max Gust Speed -    
Visibility 10 miles    
Events      
Averages and records for this station are not official NWS values.
T = Trace of Precipitation, MM = Missing Value Source: NWS Daily Summary

Daily Weather History Graph

Daily Weather History Graph

Search for Another Location

Airport or City:

Trip Planner

Search our weather history database for the weather conditions in past years. The results will help you decide how hot, cold, wet, or windy it might be!

Date:

Astronomy

Aug. 19, 2014 Rise Set
Actual Time 6:19 AM AKDT 9:45 PM AKDT
Civil Twilight 5:26 AM AKDT 10:37 PM AKDT
Nautical Twilight 4:09 AM AKDT 11:52 PM AKDT
Astronomical Twilight 2:35 AM AKDT 1:30 AM AKDT
Moon 12:47 AM AKDT (8/19) 6:24 PM AKDT (8/19)
Length of Visible Light 17h 10m
Length of Day
15h 26m
Waning Crescent, 28% of the Moon is Illuminated
Aug 19
Waning Crescent
Aug 25
New
Sep 2
First Quarter
Sep 8
Full
Sep 15
Last Quarter

Hourly Weather History & Observations

Time (AKDT) Temp. Dew Point Humidity Pressure Visibility Wind Dir Wind Speed Gust Speed Precip Events Conditions
1:53 AM 57.0 °F 52.0 °F 83% 30.00 in 10.0 mi Calm Calm - N/A   Overcast
2:53 AM 53.1 °F 50.0 °F 89% 30.00 in 9.0 mi Calm Calm - N/A   Partly Cloudy
4:53 AM 53.1 °F 50.0 °F 89% 30.01 in 9.0 mi Calm Calm - N/A   Scattered Clouds
5:53 AM 52.0 °F 48.9 °F 89% 30.02 in 7.0 mi Calm Calm - N/A   Clear
6:53 AM 52.0 °F 48.9 °F 89% 30.01 in 8.0 mi Calm Calm - N/A   Clear
7:53 AM 53.1 °F 48.9 °F 86% 30.01 in 10.0 mi Calm Calm - N/A   Clear
8:53 AM 54.0 °F 48.9 °F 83% 30.01 in 10.0 mi NNE 4.6 mph - N/A   Clear
9:53 AM 57.0 °F 50.0 °F 77% 30.01 in 10.0 mi NNW 3.5 mph - N/A   Clear
10:53 AM 61.0 °F 51.1 °F 70% 30.01 in 10.0 mi North 3.5 mph - N/A   Clear
11:53 AM 64.0 °F 51.1 °F 63% 30.01 in 10.0 mi NNE 3.5 mph - N/A   Clear
1:53 PM 66.0 °F 53.1 °F 63% 30.00 in 10.0 mi Calm Calm - N/A   Clear
2:53 PM 66.9 °F 52.0 °F 59% 29.99 in 10.0 mi WNW 5.8 mph - N/A   Clear
3:53 PM 69.1 °F 53.1 °F 57% 29.98 in 10.0 mi Calm Calm - N/A   Clear
4:53 PM 70.0 °F 52.0 °F 53% 29.96 in 10.0 mi NW 5.8 mph - N/A   Clear
5:53 PM 70.0 °F 53.1 °F 55% 29.96 in 10.0 mi WNW 3.5 mph - N/A   Clear
6:53 PM 69.1 °F 53.1 °F 57% 29.96 in 10.0 mi WNW 6.9 mph - N/A   Clear
7:53 PM 68.0 °F 53.1 °F 59% 29.96 in 10.0 mi WNW 5.8 mph - N/A   Clear
8:53 PM 64.9 °F 55.0 °F 70% 29.96 in 10.0 mi SSW 5.8 mph - N/A   Scattered Clouds
9:53 PM 62.1 °F 53.1 °F 72% 29.97 in 10.0 mi Calm Calm - N/A   Clear
10:53 PM 61.0 °F 51.1 °F 70% 29.99 in 10.0 mi SSW 3.5 mph - N/A   Clear
11:53 PM 61.0 °F 51.1 °F 70% 30.00 in 10.0 mi Variable 4.6 mph - N/A   Mostly Cloudy